map of BDM home
Great Circle Mapper logo
BDM - Airport
Location
City:  Bandirma, Balikesir, Turkey
ICAO:LTBG
IATA:BDM

Details
Type:Airport (Aerodrome, Airfield)
Use:Public/Civil, Military
Latitude:4019'05"N (40.317972)
Longitude:2758'40"E (27.977694)
Datum:WGS 1984
Elevation:170 ft (52 m)
Variation:5.12E (WMM2015 magnetic declination)
0.10 annual change
Runways:1
Longest:9865 × 147 ft (3007 × 45 m), paved

Time
Time Zone:UTC+2 (DST+3)
Local Time:

Weather
METAR:LTBG 270315Z 01010KT 340V050 9999 BKN030 16/14 Q1019 RESHRA NOSIG RMK RWY18 01014KT

Related Locations
Nearby:
Farthest:RVV: 11270 mi / 18137 km
Raivavae, Tubuai Islands, Austral Islands, PF

Find:

   beyond  
but within

Other Information
Maps:
NOTAMs:
Links:
Sources:

  
flag of Turkey   

Sectional Chart

Flight Planning
at skyvector.com

Satellite Image

Google Maps Satellite view

 

Copyright © 2004-2016 Karl L. Swartz. All rights reserved.
The Great Circle Mapper name and logo are trademarks of the Great Circle Mapper.
All other trademarks mentioned herein belong to their respective owners.
Please see credits for attibutions and further copyright information.

  Follow gcmap on Facebook Follow gcmap on Twitter Follow gcmap on Google+ GCmap on LinkedIn

hCard Microformat

Geo Microformat